Weather in Gayny

Russia / Perm Krai     60°17′55″N   54°20′28″E
temp.,
°C
wind,
m/s
gust,
m/s
humid.,
%
clouds,
%
prec.,
mm/h
press.,
hPa
HPBL,
m
27 february, sat
sat2723:00−20sse41295100 0.0 1016484
02:00−20se41195100 0.0 1015412
05:00−21se4119698 0.0 1014354
08:00−21ese4109577 0.0 1012316
11:00−17ese498848 0.0 1012361
14:00−13e47840 0.0 1010491
17:00−12e388720 0.0 1010661
20:00−16ene2796100 0.0 1011165
28 february, sun
sun2823:00−18ese389497 0.0 1013267
02:00−23e26950 0.0 1013112
05:00−24e23940 0.0 101442
08:00−25ene23940 0.0 101445
11:00−20ene24910 0.0 1014203
14:00−15ne23820 0.0 1014382
17:00−13ne24860 0.0 1015467
20:00−18nne129773 0.0 101520
1 march, mon
mon123:00−20n1110066 0.0 101820
02:00−21nnw1110046 0.0 101920
05:00−22nw1110050 0.0 102020
08:00−23wsw111004 0.0 102020
11:00−17wsw129111 0.0 1020186
14:00−12sw238545 0.0 1018402
17:00−11ssw258746 0.0 1017499
20:00−15ssw389519 0.0 1015164
2 march, tue
tue223:00−15ssw4109419 0.0 1013321
02:00−17s4109366 0.0 1011322
05:00−16s4119183 0.0 1008396
08:00−15s41194100 0.1 1005453
11:00−13s4993100 0.8 1003497
14:00−11s4891100 0.6 1003620
17:00−10s4791100 0.9 1002656
20:00−12s3794100 0.3 1003408
3 march, wed
wed323:00−12s3695100 0.6 1003338
02:00−14sse2696100 0.4 1003199
05:00−14sse2597100 0.4 1004148
08:00−15sse1297100 0.1 100457
11:00−12se1191100 0.3 1005228
14:00−9ne1188100 0.1 1006375
17:00−9n1291100 0.4 1007362
20:00−11nw1197100 0.1 100821